Location: Domont
(49.0278°N, 2.3264°E)
Time: 01:52:48
(UTC+00:00)

Orbus 7S? - Pass Details

Date: 30 May 2022
Orbit: 340 x 6374 km, 56.9° (Epoch: 04 July)

Event Time Altitude Azimuth Distance (km) Brightness Sun altitude
Exits shadow 21:43:54 17° 151° (SSE) 3,830 6.9 -13.9°
Maximum altitude 21:52:17 34° 99° (E) 4,177 7.4 -14.5°
Drops below altitude 10° 22:14:01 10° 48° (NE) 8,677 9.6 -16.0°
Sets 22:23:22 0° 42° (NE) 10,456 10.2 -16.6°
